Regional Weather Roundup
Issued by NWS State College, PA

Current Version | Previous Version | Text Only | Print | Product List | Glossary On
Versions: 1 2 3 4 5 6 7 8 9 10 11 12 13 14 15 16 17 18 19 20 21 22 23 24 25 26 27 28 29 30 31 32 33 34 35 36 37 38 39 40 41 42 43 44 45 46 47 48 49 50
000
ASUS41 KCTP 030910
RWRCTP

REGIONAL WEATHER ROUNDUP
NATIONAL WEATHER SERVICE STATE COLLEGE PA
500 AM EDT TUE MAY 03 2016

Note: "fair" indicates few or no clouds below 12,000 feet with no
significant weather and/or obstructions to visibility.

* = STATION THAT DOES NOT REPORT PRECIPITATION /E.G. RAIN...SNOW...ETC/
    THUNDER OR FOG.

PAZ002>004-007>009-013>016-020>023-029>032-031000-
WESTERN PENNSYLVANIA

CITY           SKY/WX    TMP DP  RH WIND       PRES   REMARKS
ERIE           CLOUDY    44  41  89 CALM      29.92S FOG
MEADVILLE      CLOUDY    39  39 100 N6        29.89S FOG
FRANKLIN*      CLOUDY    45  41  87 N3        29.90S
NEW CASTLE     CLOUDY    44  42  93 CALM      29.91S
BEAVER COUNTY  NOT AVBL
BUTLER*        CLOUDY    48  43  81 CALM      29.90S
PITTSBURGH INT CLOUDY    49  43  80 N6        29.87S
PITTSBURGH     CLOUDY    49  45  86 N5        29.86S
INDIANA*       CLOUDY    52  50  93 NW5       29.89R
LATROBE        CLOUDY    52  52 100 NW6       29.87S
WASHINGTON CO* CLOUDY    48  45  87 N5        29.88S
$$

PAZ004>006-010>012-017>019-024>028-033>037-041-042-045-046-049>053-031000-
CENTRAL PENNSYLVANIA

CITY           SKY/WX    TMP DP  RH WIND       PRES   REMARKS
BRADFORD       FOG       44  42  93 NE5       29.86F VSB 1
DUBOIS         CLOUDY    48  45  89 NE5       29.84F
CLEARFIELD     CLOUDY    51  47  86 NE5       29.85S
JOHNSTOWN      CLOUDY    52  48  86 W5        29.84S
ALTOONA        CLOUDY    55  53  93 N5        29.84S
STATE COLLEGE  CLOUDY    48  47  97 NE6       29.86R
WILLIAMSPORT   CLOUDY    49  46  90 SW3       29.87S
SELINSGROVE    LGT RAIN  51  47  86 NE6       29.85F
FT INDIANTOWN  NOT AVBL
CAPITAL CITY   LGT RAIN  58  53  84 NE9       29.82S
HARRISBURG     LGT RAIN  57  55  93 NE6       29.81S FOG
YORK           CLOUDY    58  56  93 E7        29.80S FOG
$$

PAZ038>040-043-044-047-048-054-055-060>062-067>071-031000-
EASTERN PENNSYLVANIA

CITY           SKY/WX    TMP DP  RH WIND       PRES   REMARKS
SCRANTON       LGT RAIN  49  47  93 CALM      29.86S
MOUNT POCONO   LGT RAIN  47  44  90 E6        29.84F FOG
ALLENTOWN      LGT RAIN  53  50  89 NE6       29.85F
QUAKERTOWN*    CLOUDY    54  54 100 E3        29.84F
READING        CLOUDY    54  52  93 N7        29.82F
LANCASTER      CLOUDY    56  55  97 NE8       29.82S FOG
COATESVILLE    LGT RAIN  55  55 100 E10G17    29.83F
POTTSTOWN      LGT RAIN  55  54  96 VRB3      29.84F
BLUE BELL      CLOUDY    54  54 100 E3        29.83S
DOYLESTOWN     LGT RAIN  53  53 100 VRB3      29.84F
WILLOW GROVE   NOT AVBL
NORTH PHILA    RAIN      57  55  93 NE7       29.85F FOG
PHILADELPHIA   RAIN      57  53  86 NE7       29.83F FOG
$$



USA.gov is the U.S. government's official web portal to all federal, state and local government web resources and services.